QPF
0.00 0.00 0.00 0.00 0.00 0.00 0.00 0.00 0.00 0.00 0.00 0.00 0.00 0.00 0.00 0.00 0.00 0.00 0.00 0.00 0.00 0.00 0.00 0.00 0.00 0.00 0.00 0.00 0.00 0.00 0.00 0.00 0.00 0.00 0.00 0.00 0.00 0.00
0.00 0.00 0.00 0.00 0.00 0.00 0.00 0.00 0.00 0.00 0.00 0.00 0.00 0.00 0.00 0.00 0.00 0.00 0.00 0.00 0.00 0.00 0.00 0.00 0.00 0.00 0.00 0.00 0.00 0.00 0.00 0.00 0.00 0.00 0.00 0.00 0.00 0.00
0.00 0.00 0.00 0.00 0.00 0.00 0.00 0.00 0.00 0.00 0.00 0.00 0.00 0.00 0.00 0.00 0.00 0.00 0.00 0.00 0.00 0.00 0.00 0.00 0.00 0.00 0.00 0.00 0.00 0.00 0.00 0.00 0.00 0.00 0.00 0.00 0.00 0.00
0.00 0.00 0.00 0.00 0.00 0.00 0.00 0.00 0.00 0.00 0.00 0.00 0.00 0.00 0.00 0.00 0.00 0.00 0.00 0.00 0.00 0.00 0.00 0.00 0.00 0.00 0.00 0.00 0.00 0.00 0.00 0.00 0.00 0.00 0.00 0.00 0.00 0.00
0.00 0.00 0.00 0.00 0.00 0.00 0.00 0.00 0.00 0.00 0.00 0.00 0.00 0.00 0.00 0.00 0.00 0.00 0.00 0.00 0.00 0.00 0.00 0.00 0.00 0.00 0.00 0.00 0.00 0.00 0.00 0.00 0.00 0.00 0.00 0.00 0.00 0.00
0.00 0.00 0.00 0.00 0.00 0.00 0.00 0.00 0.00 0.00 0.00 0.00 0.00 0.00 0.00 0.00 0.00 0.00 0.00 0.00 0.00 0.00 0.00 0.00 0.00 0.00 0.00 0.00 0.00 0.00 0.00 0.00 0.00 0.00 0.00 0.00 0.00 0.00
0.00 0.00 0.00 0.00 0.00 0.00 0.00 0.00 0.00 0.00 0.00 0.00 0.00 0.00 0.00 0.00 0.00 0.00 0.00 0.00 0.00 0.00 0.00 0.00 0.00 0.00 0.00 0.00 0.00 0.00 0.00 0.00 0.00 0.00 0.00 0.00 0.00 0.00
0.00 0.00 0.00 0.00 0.00 0.00 0.00 0.00 0.00 0.00 0.00 0.00 0.00 0.00 0.00 0.00 0.00 0.00 0.00 0.00 0.00 0.00 0.00 0.00 0.00 0.00 0.00 0.00 0.00 0.00 0.00 0.00 0.00 0.00 0.00 0.00 0.00 0.00
0.00 0.00 0.00 0.00 0.00 0.00 0.00 0.00 0.00 0.00 0.00 0.00 0.00 0.00 0.00 0.00 0.00 0.00 0.00 0.00 0.00 0.00 0.00 0.00 0.00 0.00 0.00 0.00 0.00 0.00 0.00 0.00 0.00 0.00 0.00 0.00 0.00 0.00
0.00 0.00 0.00 0.00 0.00 0.00 0.00 0.00 0.00 0.00 0.00 0.00 0.00 0.00 0.00 0.00 0.00 0.00 0.00 0.00 0.00 0.00 0.00 0.00 0.00 0.00 0.00 0.00 0.00 0.00 0.00 0.00 0.00 0.00 0.00 0.00 0.00 0.00
0.00 0.00 0.00 0.00 0.00 0.00 0.00 0.00 0.00 0.00 0.00 0.00 0.00 0.00 0.00 0.00 0.00 0.00 0.00 0.00 0.00 0.00 0.00 0.00 0.00 0.00 0.00 0.00 0.00 0.00 0.00 0.00 0.00 0.00 0.00 0.00 0.00 0.00
0.00 0.00 0.00 0.00 0.00 0.00 0.00 0.00 0.00 0.00 0.00 0.00 0.00 0.00 0.00 0.00 0.00 0.00 0.00 0.00 0.00 0.00 0.00 0.00 0.00 0.00 0.00 0.00 0.00 0.00 0.00 0.00 0.00 0.00 0.00 0.00 0.00 0.00
0.00 0.00 0.00 0.00 0.00 0.00 0.00 0.00 0.00 0.00 0.00 0.00 0.00 0.00 0.00 0.00 0.00 0.00 0.00 0.00 0.00 0.00 0.00 0.00 0.00 0.00 0.00 0.00 0.00 0.00 0.00 0.00 0.00 0.00 0.00 0.00 0.00 0.00
0.00 0.00 0.00 0.00 0.00 0.00 0.00 0.00 0.00 0.00 0.00 0.00 0.00 0.00 0.00 0.00 0.00 0.00 0.00 0.00 0.00 0.00 0.00 0.00 0.00 0.00 0.00 0.00 0.00 0.00 0.00 0.00 0.00 0.00 0.00 0.00 0.00 0.00
0.00 0.00 0.00 0.00 0.00 0.00 0.00 0.00 0.00 0.00 0.00 0.00 0.00 0.00 0.00 0.00 0.00 0.00 0.00 0.00 0.00 0.00 0.00 0.00 0.00 0.00 0.00 0.00 0.00 0.00 0.00 0.00 0.00 0.00 0.00 0.00 0.00 0.00
0.00 0.00 0.00 0.00 0.00 0.00 0.00 0.00 0.00 0.00 0.00 0.00 0.00 0.00 0.00 0.00 0.00 0.00 0.00 0.00 0.00 0.00 0.00 0.00 0.00 0.00 0.00 0.00 0.00 0.00 0.00 0.00 0.00 0.00 0.00 0.00 0.00 0.00
0.00 0.00 0.00 0.00 0.00 0.00 0.00 0.00 0.00 0.00 0.00 0.00 0.00 0.00 0.00 0.00 0.00 0.00 0.00 0.00 0.00 0.00 0.00 0.00 0.00 0.00 0.00 0.00 0.00 0.00 0.00 0.00 0.00 0.00 0.00 0.00 0.00 0.00
0.00 0.00 0.00 0.00 0.00 0.00 0.00 0.00 0.00 0.00 0.00 0.00 0.00 0.00 0.00 0.00 0.00 0.00 0.00 0.00 0.00 0.00 0.00 0.00 0.00 0.00 0.00 0.00 0.00 0.00 0.00 0.00 0.00 0.00 0.00 0.00 0.00 0.00
0.00 0.00 0.00 0.00 0.00 0.00 0.00 0.00 0.00 0.00 0.00 0.00 0.00 0.00 0.00 0.00 0.00 0.00 0.00 0.00 0.00 0.00 0.00 0.00 0.00 0.00 0.00 0.00 0.00 0.00 0.00 0.00 0.00 0.00 0.00 0.00 0.00 0.00
0.00 0.00 0.00 0.00 0.00 0.00 0.00 0.00 0.00 0.00 0.00 0.00 0.00 0.00 0.00 0.00 0.00 0.00 0.00 0.00 0.00 0.00 0.00 0.00 0.00 0.00 0.00 0.00 0.00 0.00 0.00 0.00 0.00 0.00 0.00 0.00 0.00 0.00
0.00 0.00 0.00 0.00 0.00 0.00 0.00 0.00 0.00 0.00 0.00 0.00 0.00 0.00 0.00 0.00 0.00 0.00 0.00 0.00 0.00 0.00 0.00 0.00 0.00 0.00 0.00 0.00 0.00 0.00 0.00 0.00 0.00 0.00 0.00 0.00 0.00 0.00
0.00 0.00 0.00 0.00 0.00 0.00 0.00 0.00 0.00 0.00 0.00 0.00 0.00 0.00 0.00 0.00 0.00 0.00 0.00 0.00 0.00 0.00 0.00 0.00 0.00 0.00 0.00 0.00 0.00 0.00 0.00 0.00 0.00 0.00 0.00 0.00 0.00 0.00
0.00 0.00 0.00 0.00 0.00 0.00 0.00 0.00 0.00 0.00 0.00 0.00 0.00 0.00 0.00 0.00 0.00 0.00 0.00 0.00 0.00 0.00 0.00 0.00 0.00 0.00 0.00 0.00 0.00 0.00 0.00 0.00 0.00 0.00 0.00 0.00 0.00 0.00
MSLP
1030.63 1030.78 1031.03 1031.24 1031.31 1031.47 1031.78 1032.06 1032.60 1033.30 1033.49 1033.42 1033.37 1033.18 1032.91 1032.61 1032.29 1032.15 1031.79 1031.13 1030.57 1029.90 1029.40 1028.99 1028.48 1028.16 1027.82 1027.34 1026.75 1026.07 1025.44 1024.93 1024.19 1023.42 1022.69 1022.16 1021.40 1020.57
1030.82 1030.95 1031.36 1031.65 1031.85 1032.04 1032.23 1032.45 1032.59 1033.05 1033.67 1033.73 1033.69 1033.66 1033.38 1032.95 1032.59 1032.34 1031.94 1031.51 1031.06 1030.38 1029.89 1029.33 1029.08 1028.72 1028.28 1027.77 1027.16 1026.49 1025.92 1025.38 1024.66 1023.93 1023.15 1022.56 1021.95 1021.18
1030.98 1031.26 1031.66 1031.85 1032.27 1032.41 1032.50 1032.77 1033.06 1033.26 1033.73 1033.82 1033.83 1033.76 1033.57 1033.53 1033.07 1032.61 1032.14 1031.76 1031.44 1030.80 1030.27 1029.85 1029.60 1029.10 1028.54 1027.98 1027.41 1026.87 1026.32 1025.72 1025.06 1024.26 1023.63 1023.02 1022.40 1021.73
1031.34 1031.49 1031.92 1032.10 1032.53 1032.75 1032.86 1033.09 1033.28 1033.47 1033.79 1034.21 1034.24 1034.07 1033.90 1033.71 1033.45 1033.03 1032.50 1032.01 1031.69 1031.08 1030.57 1030.30 1029.87 1029.39 1028.84 1028.27 1027.68 1027.21 1026.69 1026.06 1025.36 1024.58 1024.13 1023.63 1022.99 1022.27
1031.22 1031.51 1031.90 1032.35 1032.82 1032.99 1033.10 1033.28 1033.49 1033.67 1033.86 1034.18 1034.31 1034.20 1033.98 1033.74 1033.46 1033.18 1032.81 1032.44 1031.77 1031.35 1031.01 1030.62 1030.13 1029.59 1029.14 1028.61 1028.04 1027.54 1026.89 1026.20 1025.46 1024.98 1024.62 1024.21 1023.61 1022.86
1031.28 1031.54 1031.84 1032.20 1032.61 1032.99 1033.24 1033.48 1033.61 1033.78 1033.95 1034.11 1034.13 1034.08 1034.02 1033.68 1033.58 1033.37 1033.00 1032.70 1032.22 1031.57 1031.44 1030.90 1030.35 1029.89 1029.41 1028.85 1028.47 1027.88 1027.07 1026.21 1025.80 1025.40 1025.06 1024.64 1024.00 1023.22
1031.63 1031.58 1031.76 1032.10 1032.31 1032.71 1033.04 1033.56 1033.73 1033.83 1033.97 1034.01 1034.08 1034.10 1034.03 1033.98 1033.85 1033.71 1033.52 1033.13 1032.54 1032.16 1031.99 1031.33 1030.68 1030.24 1029.70 1029.17 1028.63 1027.85 1027.05 1026.63 1026.21 1025.84 1025.45 1024.90 1024.19 1023.45
1031.44 1031.98 1031.83 1031.67 1032.02 1032.21 1032.32 1032.87 1033.40 1033.61 1033.86 1033.97 1034.11 1034.25 1034.15 1034.05 1033.91 1033.79 1033.57 1033.17 1032.69 1032.16 1032.16 1031.57 1030.91 1030.51 1030.02 1029.47 1028.74 1027.93 1027.44 1026.97 1026.65 1026.10 1025.70 1025.10 1024.45 1023.71
1031.32 1031.69 1031.86 1031.91 1032.24 1032.52 1032.56 1032.69 1032.92 1033.01 1033.24 1033.76 1034.02 1034.05 1034.05 1033.78 1033.76 1033.60 1033.46 1033.40 1033.17 1032.48 1032.30 1031.70 1031.05 1030.80 1030.10 1029.56 1028.94 1028.35 1027.83 1027.48 1027.04 1026.54 1025.96 1025.22 1024.63 1023.93
1031.41 1031.62 1031.87 1032.25 1032.43 1032.66 1032.90 1033.03 1033.33 1033.53 1033.48 1033.42 1033.73 1033.73 1033.62 1033.44 1033.45 1033.34 1033.32 1033.25 1032.93 1032.42 1032.25 1031.93 1031.19 1030.82 1030.19 1029.54 1029.11 1028.54 1028.21 1027.86 1027.39 1026.89 1026.17 1025.51 1024.81 1024.21
1031.42 1031.70 1031.94 1032.20 1032.17 1031.95 1032.62 1032.97 1033.23 1033.33 1033.05 1032.80 1032.73 1032.74 1032.66 1032.52 1032.52 1032.99 1033.22 1033.18 1032.83 1032.31 1031.98 1031.99 1031.32 1030.83 1030.24 1029.58 1029.20 1028.74 1028.43 1028.12 1027.67 1027.15 1026.49 1025.78 1025.21 1024.47
1031.31 1031.57 1031.36 1031.85 1031.58 1031.55 1032.07 1032.60 1033.08 1032.97 1033.01 1032.90 1032.85 1032.73 1032.66 1032.74 1032.54 1032.80 1033.14 1033.26 1033.07 1032.46 1031.98 1032.04 1031.47 1031.19 1030.23 1029.44 1029.30 1029.10 1028.71 1028.25 1027.84 1027.29 1026.75 1026.23 1025.52 1024.95
1030.97 1031.36 1031.45 1031.15 1031.22 1031.28 1031.50 1032.38 1032.36 1032.32 1032.49 1032.72 1032.86 1032.80 1032.60 1032.64 1032.66 1032.60 1032.71 1032.97 1032.98 1032.80 1032.16 1031.95 1031.66 1031.40 1031.11 1030.18 1029.37 1029.08 1028.86 1028.28 1027.79 1027.29 1026.85 1026.49 1025.87 1025.35
1030.70 1031.04 1031.24 1030.95 1031.00 1031.11 1031.32 1031.57 1031.61 1031.78 1032.60 1032.72 1032.80 1032.73 1032.56 1032.47 1032.50 1032.45 1032.41 1032.46 1032.42 1032.28 1031.89 1032.00 1031.93 1031.52 1031.15 1030.46 1029.68 1028.80 1028.65 1028.26 1027.84 1027.42 1026.99 1026.45 1026.03 1025.61
1030.21 1030.42 1030.60 1030.63 1030.74 1030.93 1031.22 1031.30 1031.47 1032.15 1032.36 1032.67 1032.83 1032.66 1032.42 1032.33 1032.33 1032.31 1032.17 1032.05 1031.96 1031.81 1031.50 1031.41 1031.56 1031.20 1031.02 1030.52 1029.86 1029.18 1028.66 1028.02 1027.69 1027.51 1027.00 1026.77 1026.35 1025.84
1029.36 1029.93 1030.12 1030.52 1030.72 1030.98 1031.22 1031.49 1031.68 1031.92 1032.02 1032.32 1032.44 1032.41 1032.35 1032.31 1032.31 1032.27 1032.32 1032.24 1032.30 1031.88 1031.26 1031.04 1030.96 1031.00 1030.71 1030.19 1029.82 1029.22 1028.82 1028.66 1027.69 1027.47 1027.20 1026.78 1026.17 1025.80
1029.34 1030.24 1030.35 1030.59 1030.82 1031.05 1031.42 1031.65 1031.63 1031.74 1031.78 1031.97 1032.15 1032.26 1032.30 1032.28 1032.20 1032.08 1032.06 1032.06 1032.31 1032.18 1031.68 1030.99 1030.58 1030.44 1030.19 1029.87 1029.58 1029.00 1028.61 1028.25 1027.79 1027.42 1027.04 1026.57 1026.12 1025.75
1028.91 1030.14 1030.34 1030.46 1030.75 1030.99 1031.23 1031.42 1031.48 1031.51 1031.56 1031.71 1031.87 1032.04 1032.14 1032.13 1032.06 1031.99 1031.86 1031.88 1032.00 1031.88 1031.62 1031.06 1030.66 1030.45 1030.17 1029.31 1029.04 1028.80 1028.45 1028.12 1027.58 1027.21 1026.97 1026.67 1026.05 1025.55
1028.22 1029.21 1029.62 1029.91 1030.24 1030.60 1030.92 1031.14 1031.28 1031.27 1031.26 1031.45 1031.58 1031.67 1031.72 1031.74 1031.69 1031.72 1031.67 1031.61 1031.65 1031.54 1031.23 1030.90 1030.72 1030.80 1030.48 1029.69 1028.76 1028.17 1028.19 1027.89 1027.52 1027.13 1026.82 1026.56 1026.20 1025.52
1027.68 1028.35 1028.91 1029.31 1029.80 1030.20 1030.52 1030.76 1030.87 1030.94 1031.04 1031.14 1031.22 1031.26 1031.32 1031.37 1031.48 1031.48 1031.41 1031.35 1031.22 1031.08 1030.93 1030.64 1030.51 1030.37 1030.36 1029.78 1029.06 1028.31 1027.88 1027.65 1027.36 1026.84 1026.47 1026.09 1025.69 1025.06
1027.59 1028.08 1028.50 1028.96 1029.34 1029.64 1029.98 1030.23 1030.44 1030.59 1030.70 1030.75 1030.75 1030.80 1030.86 1030.95 1031.10 1031.03 1030.99 1030.73 1030.51 1030.49 1030.41 1030.26 1029.89 1029.40 1029.81 1029.69 1029.15 1028.24 1027.56 1027.10 1026.86 1026.55 1026.16 1025.96 1025.49 1024.98
1027.73 1028.07 1028.45 1028.77 1029.02 1029.28 1029.61 1029.89 1030.09 1030.22 1030.26 1030.27 1030.29 1030.32 1030.32 1030.33 1030.42 1030.49 1030.48 1030.41 1030.33 1030.16 1029.87 1029.59 1029.27 1029.55 1029.74 1029.69 1028.85 1028.19 1027.48 1026.85 1026.26 1025.96 1025.61 1025.45 1025.29 1024.63
1028.21 1028.41 1028.63 1028.80 1028.85 1029.09 1029.42 1029.67 1029.79 1029.82 1029.81 1029.78 1029.74 1029.70 1029.74 1029.81 1029.82 1029.80 1029.83 1029.77 1029.78 1029.71 1029.56 1029.45 1029.20 1029.17 1029.09 1028.80 1028.39 1027.90 1027.35 1026.76 1026.22 1025.67 1024.99 1024.57 1024.38 1024.03
Thickness
5449 5447 5445 5444 5443 5442 5440 5438 5436 5434 5434 5432 5433 5436 5439 5442 5444 5448 5452 5457 5462 5468 5473 5477 5483 5488 5492 5498 5504 5511 5517 5522 5529 5536 5542 5546 5552 5559
5435 5434 5431 5430 5430 5429 5427 5425 5425 5422 5415 5419 5421 5423 5426 5429 5432 5437 5441 5445 5450 5456 5461 5465 5469 5474 5479 5486 5492 5499 5506 5511 5518 5525 5532 5537 5541 5548
5422 5421 5418 5417 5415 5415 5415 5413 5411 5410 5406 5407 5408 5410 5413 5415 5419 5424 5428 5432 5437 5443 5448 5453 5456 5462 5468 5474 5482 5489 5495 5501 5508 5515 5521 5526 5531 5537
5407 5407 5404 5402 5400 5400 5400 5399 5398 5397 5395 5393 5392 5394 5397 5401 5405 5408 5413 5417 5423 5428 5433 5438 5444 5451 5457 5463 5469 5475 5482 5489 5497 5506 5511 5515 5520 5526
5394 5393 5391 5388 5385 5385 5384 5384 5384 5383 5382 5380 5379 5380 5382 5385 5389 5393 5396 5401 5407 5411 5415 5422 5429 5436 5442 5448 5455 5462 5469 5478 5485 5492 5498 5502 5508 5515
5378 5378 5377 5375 5372 5370 5369 5367 5368 5367 5367 5366 5367 5367 5367 5370 5372 5374 5378 5382 5388 5394 5397 5404 5411 5419 5426 5433 5438 5445 5454 5466 5472 5478 5483 5488 5496 5504
5359 5361 5361 5359 5356 5355 5353 5351 5350 5350 5350 5351 5351 5350 5351 5352 5353 5355 5359 5362 5367 5375 5379 5386 5395 5402 5409 5415 5421 5429 5440 5448 5455 5462 5467 5474 5484 5493
5343 5340 5343 5343 5341 5339 5339 5337 5336 5334 5334 5334 5333 5331 5333 5334 5335 5337 5340 5345 5351 5355 5359 5365 5375 5381 5388 5395 5402 5413 5422 5431 5437 5445 5452 5460 5470 5480
5323 5322 5323 5324 5323 5322 5321 5321 5320 5320 5319 5318 5317 5317 5317 5318 5319 5320 5321 5324 5327 5334 5340 5345 5354 5358 5367 5374 5382 5393 5403 5409 5417 5425 5434 5446 5456 5466
5305 5305 5305 5305 5304 5304 5304 5304 5303 5301 5302 5303 5302 5302 5304 5303 5301 5302 5303 5306 5309 5313 5319 5324 5332 5336 5344 5354 5361 5372 5380 5388 5396 5405 5417 5429 5440 5450
5289 5289 5289 5289 5288 5290 5289 5287 5286 5285 5288 5290 5290 5288 5287 5287 5286 5286 5284 5286 5290 5292 5294 5302 5310 5317 5323 5334 5341 5349 5356 5364 5373 5384 5397 5410 5420 5431
5275 5274 5275 5275 5276 5277 5276 5274 5269 5270 5272 5274 5273 5271 5271 5270 5268 5268 5267 5265 5268 5272 5272 5280 5284 5290 5304 5309 5315 5323 5331 5340 5351 5362 5374 5387 5398 5409
5263 5261 5261 5262 5263 5263 5263 5260 5258 5260 5259 5257 5255 5255 5256 5254 5251 5251 5250 5249 5248 5248 5252 5259 5263 5267 5274 5286 5291 5298 5306 5317 5330 5341 5351 5361 5374 5386
5251 5250 5249 5250 5250 5250 5249 5246 5246 5245 5242 5239 5238 5238 5238 5236 5234 5235 5234 5234 5236 5237 5238 5241 5246 5247 5253 5265 5275 5279 5285 5297 5308 5318 5328 5338 5349 5362
5240 5238 5237 5237 5236 5235 5232 5231 5230 5228 5225 5222 5221 5221 5223 5222 5221 5221 5221 5222 5223 5224 5227 5229 5233 5238 5242 5251 5259 5265 5272 5280 5290 5300 5309 5315 5325 5338
5228 5226 5224 5221 5220 5218 5217 5216 5216 5215 5212 5210 5210 5211 5210 5209 5208 5209 5208 5210 5208 5211 5215 5219 5222 5228 5234 5240 5247 5252 5258 5264 5275 5285 5292 5299 5309 5320
5216 5212 5209 5208 5207 5207 5206 5206 5205 5204 5203 5202 5201 5200 5199 5198 5198 5199 5199 5200 5196 5198 5202 5208 5214 5219 5226 5231 5236 5242 5249 5255 5263 5270 5279 5287 5294 5304
5205 5199 5199 5201 5199 5198 5196 5196 5196 5196 5195 5194 5193 5192 5191 5190 5190 5191 5191 5191 5190 5191 5193 5197 5201 5206 5213 5222 5226 5232 5238 5243 5250 5258 5264 5271 5280 5290
5203 5199 5196 5193 5192 5191 5189 5188 5187 5187 5187 5186 5186 5185 5185 5184 5184 5183 5184 5184 5184 5184 5185 5188 5189 5192 5200 5207 5217 5222 5227 5232 5239 5245 5251 5257 5264 5275
5195 5192 5190 5189 5187 5185 5183 5181 5180 5180 5179 5179 5178 5177 5177 5177 5176 5175 5176 5176 5177 5177 5177 5177 5180 5183 5185 5193 5203 5208 5215 5222 5227 5234 5240 5249 5257 5265
5186 5185 5184 5182 5180 5179 5178 5176 5175 5173 5173 5172 5172 5171 5170 5169 5168 5169 5169 5171 5172 5171 5168 5170 5173 5177 5182 5186 5191 5200 5205 5211 5218 5224 5230 5238 5247 5255
5174 5174 5173 5172 5172 5172 5170 5169 5167 5166 5166 5165 5165 5165 5164 5164 5163 5162 5162 5162 5162 5163 5165 5167 5168 5169 5168 5173 5183 5189 5195 5201 5210 5217 5223 5228 5237 5247
5158 5158 5159 5160 5160 5160 5159 5159 5158 5158 5158 5158 5158 5158 5158 5156 5157 5157 5156 5156 5155 5155 5156 5157 5158 5160 5163 5167 5175 5181 5185 5191 5198 5207 5217 5223 5231 5240